| time (UTC) | temp C | wind direction | speed KPH | gust KPH | rain 1hr cm | rain 24hr cm | rain mn cm | humidity % | barometer mb |
| 20260503040139 | 9 | 66 | 0.0 | 0.0 | 0.00 | 0.00 | 0.00 | 42 | 932.4 |
| 20260503035635 | 10 | 67 | 0.0 | 0.0 | 0.00 | 0.00 | 0.00 | 40 | 932.5 |
| 20260503035133 | 10 | 59 | 0.0 | 0.0 | 0.00 | 0.00 | 0.00 | 41 | 932.3 |
| 20260503034630 | 10 | 63 | 0.0 | 0.0 | 0.00 | 0.00 | 0.00 | 41 | 932.1 |
| 20260503034127 | 10 | 76 | 0.0 | 0.0 | 0.00 | 0.00 | 0.00 | 40 | 932.1 |
| 20260503033624 | 10 | 72 | 0.0 | 0.0 | 0.00 | 0.00 | 0.00 | 40 | 931.9 |
| 20260503033122 | 10 | 76 | 0.0 | 0.0 | 0.00 | 0.00 | 0.00 | 39 | 932.0 |
| 20260503032620 | 10 | 51 | 0.0 | 0.0 | 0.00 | 0.00 | 0.00 | 39 | 932.0 |
| 20260503032118 | 11 | 45 | 0.0 | 0.0 | 0.00 | 0.00 | 0.00 | 39 | 931.9 |
| 20260503031615 | 11 | 15 | 0.0 | 0.0 | 0.00 | 0.00 | 0.00 | 38 | 931.8 |
| 20260503031113 | 11 | 13 | 0.0 | 0.0 | 0.00 | 0.00 | 0.00 | 37 | 931.9 |
| 20260503030609 | 12 | 9 | 0.0 | 0.0 | 0.00 | 0.00 | 0.00 | 37 | 931.7 |
| 20260503030106 | 12 | 2 | 0.0 | 0.0 | 0.00 | 0.00 | 0.00 | 37 | 931.7 |
| 20260503025602 | 12 | 17 | 0.0 | 0.0 | 0.00 | 0.00 | 0.00 | 36 | 931.8 |
| 20260503025100 | 12 | 4 | 0.0 | 0.0 | 0.00 | 0.00 | 0.00 | 34 | 931.9 |
| 20260503024556 | 12 | 1 | 0.0 | 0.0 | 0.00 | 0.00 | 0.00 | 33 | 931.6 |
| 20260503024054 | 12 | 353 | 0.0 | 0.0 | 0.00 | 0.00 | 0.00 | 33 | 931.7 |
| 20260503023550 | 13 | 5 | 0.0 | 3.2 | 0.00 | 0.00 | 0.00 | 33 | 931.5 |
| 20260503023048 | 13 | 342 | 0.0 | 8.0 | 0.00 | 0.00 | 0.00 | 32 | 931.5 |
| 20260503022543 | 13 | 354 | 1.6 | 3.2 | 0.00 | 0.00 | 0.00 | 32 | 931.5 |
| 20260503022038 | 13 | 318 | 3.2 | 8.0 | 0.00 | 0.00 | 0.00 | 31 | 931.6 |
| 20260503021535 | 14 | 343 | 6.4 | 11.3 | 0.00 | 0.00 | 0.00 | 30 | 931.7 |
| 20260503021032 | 14 | 352 | 8.0 | 9.7 | 0.00 | 0.00 | 0.00 | 31 | 931.5 |
| 20260503020529 | 14 | 6 | 0.0 | 3.2 | 0.00 | 0.00 | 0.00 | 32 | 931.5 |
| 20260503020026 | 15 | 6 | 4.8 | 8.0 | 0.00 | 0.00 | 0.00 | 31 | 931.5 |
| 20260503015523 | 15 | 330 | 0.0 | 4.8 | 0.00 | 0.00 | 0.00 | 30 | 931.5 |
| 20260503015020 | 15 | 309 | 0.0 | 4.8 | 0.00 | 0.00 | 0.00 | 29 | 931.5 |
| 20260503014516 | 15 | 309 | 4.8 | 8.0 | 0.00 | 0.00 | 0.00 | 28 | 931.3 |
| 20260503014014 | 16 | 0 | 4.8 | 8.0 | 0.00 | 0.00 | 0.00 | 28 | 931.2 |
| 20260503013511 | 16 | 322 | 1.6 | 8.0 | 0.00 | 0.00 | 0.00 | 28 | 931.1 |
| 20260503013009 | 16 | 347 | 0.0 | 3.2 | 0.00 | 0.00 | 0.00 | 27 | 931.2 |
| 20260503012506 | 16 | 305 | 11.3 | 12.9 | 0.00 | 0.00 | 0.00 | 25 | 931.5 |
| 20260503012002 | 16 | 317 | 12.9 | 14.5 | 0.00 | 0.00 | 0.00 | 25 | 931.3 |
| 20260503011459 | 16 | 334 | 6.4 | 12.9 | 0.00 | 0.00 | 0.00 | 26 | 931.3 |
| 20260503010956 | 17 | 292 | 14.5 | 17.7 | 0.00 | 0.00 | 0.00 | 25 | 931.6 |
| 20260503010452 | 17 | 346 | 4.8 | 16.1 | 0.00 | 0.00 | 0.00 | 24 | 931.6 |
| 20260503005950 | 17 | 324 | 12.9 | 14.5 | 0.00 | 0.00 | 0.00 | 23 | 931.5 |
| 20260503005447 | 17 | 326 | 8.0 | 11.3 | 0.00 | 0.00 | 0.00 | 24 | 931.6 |
| 20260503004944 | 18 | 333 | 1.6 | 14.5 | 0.00 | 0.00 | 0.00 | 23 | 931.7 |
| 20260503004440 | 17 | 345 | 4.8 | 8.0 | 0.00 | 0.00 | 0.00 | 23 | 931.5 |
| 20260503003938 | 18 | 321 | 12.9 | 14.5 | 0.00 | 0.00 | 0.00 | 22 | 931.7 |
| 20260503003435 | 18 | 324 | 12.9 | 16.1 | 0.00 | 0.00 | 0.00 | 21 | 931.5 |
| 20260503002932 | 18 | 11 | 0.0 | 17.7 | 0.00 | 0.00 | 0.00 | 22 | 932.0 |
| 20260503002429 | 18 | 278 | 1.6 | 16.1 | 0.00 | 0.00 | 0.00 | 22 | 931.9 |
| 20260503001925 | 18 | 274 | 1.6 | 16.1 | 0.00 | 0.00 | 0.00 | 21 | 931.8 |
| 20260503001422 | 19 | 284 | 8.0 | 16.1 | 0.00 | 0.00 | 0.00 | 21 | 931.8 |
| 20260503000920 | 19 | 250 | 8.0 | 9.7 | 0.00 | 0.00 | 0.00 | 20 | 931.9 |
| 20260503000416 | 19 | 303 | 6.4 | 14.5 | 0.00 | 0.00 | 0.00 | 20 | 931.6 |
| 20260502235914 | 20 | 293 | 9.7 | 16.1 | 0.00 | 0.00 | 0.00 | 19 | 931.6 |
| 20260502235411 | 19 | 300 | 3.2 | 14.5 | 0.00 | 0.00 | 0.00 | 20 | 931.9 |
| 20260502234909 | 19 | 341 | 8.0 | 11.3 | 0.00 | 0.00 | 0.00 | 20 | 931.8 |
| 20260502234405 | 20 | 288 | 4.8 | 14.5 | 0.00 | 0.00 | 0.00 | 20 | 931.9 |
| 20260502233902 | 19 | 346 | 0.0 | 11.3 | 0.00 | 0.00 | 0.00 | 19 | 931.8 |
| 20260502233357 | 19 | 289 | 6.4 | 12.9 | 0.00 | 0.00 | 0.00 | 20 | 931.7 |
| 20260502232854 | 19 | 264 | 6.4 | 27.4 | 0.00 | 0.00 | 0.00 | 19 | 931.7 |
| 20260502232350 | 20 | 242 | 11.3 | 17.7 | 0.00 | 0.00 | 0.00 | 19 | 931.8 |
| 20260502231847 | 20 | 267 | 6.4 | 12.9 | 0.00 | 0.00 | 0.00 | 17 | 931.5 |
| 20260502231345 | 20 | 232 | 6.4 | 11.3 | 0.00 | 0.00 | 0.00 | 16 | 931.9 |
| 20260502230843 | 20 | 231 | 4.8 | 12.9 | 0.00 | 0.00 | 0.00 | 18 | 931.7 |
| 20260502230341 | 20 | 305 | 9.7 | 20.9 | 0.00 | 0.00 | 0.00 | 18 | 931.7 |
| 20260502225837 | 20 | 16 | 9.7 | 14.5 | 0.00 | 0.00 | 0.00 | 18 | 931.6 |
| 20260502225334 | 19 | 241 | 3.2 | 9.7 | 0.00 | 0.00 | 0.00 | 20 | 931.8 |
| 20260502224831 | 20 | 136 | 4.8 | 14.5 | 0.00 | 0.00 | 0.00 | 19 | 931.9 |
| 20260502224327 | 19 | 19 | 0.0 | 11.3 | 0.00 | 0.00 | 0.00 | 17 | 931.7 |
| 20260502223825 | 20 | 311 | 9.7 | 16.1 | 0.00 | 0.00 | 0.00 | 16 | 931.7 |
| 20260502223323 | 20 | 199 | 11.3 | 17.7 | 0.00 | 0.00 | 0.00 | 16 | 932.0 |
| 20260502222820 | 20 | 158 | 0.0 | 8.0 | 0.00 | 0.00 | 0.00 | 15 | 931.9 |
| 20260502222317 | 20 | 195 | 4.8 | 9.7 | 0.00 | 0.00 | 0.00 | 15 | 932.1 |
| 20260502221813 | 19 | 207 | 4.8 | 12.9 | 0.00 | 0.00 | 0.00 | 16 | 932.1 |
| 20260502221309 | 19 | 194 | 3.2 | 11.3 | 0.00 | 0.00 | 0.00 | 16 | 932.0 |
| 20260502220807 | 19 | 218 | 9.7 | 20.9 | 0.00 | 0.00 | 0.00 | 17 | 932.3 |
| 20260502220302 | 19 | 330 | 0.0 | 16.1 | 0.00 | 0.00 | 0.00 | 16 | 932.4 |
| 20260502215759 | 20 | 329 | 16.1 | 17.7 | 0.00 | 0.00 | 0.00 | 17 | 932.6 |
| 20260502215256 | 19 | 221 | 6.4 | 16.1 | 0.00 | 0.00 | 0.00 | 16 | 932.8 |
| 20260502214753 | 18 | 342 | 0.0 | 16.1 | 0.00 | 0.00 | 0.00 | 16 | 932.7 |
| 20260502214250 | 19 | 331 | 1.6 | 20.9 | 0.00 | 0.00 | 0.00 | 17 | 932.9 |
| 20260502213748 | 20 | 247 | 4.8 | 14.5 | 0.00 | 0.00 | 0.00 | 17 | 933.1 |
| 20260502213245 | 19 | 7 | 0.0 | 0.0 | 0.00 | 0.00 | 0.00 | 16 | 932.9 |
| 20260502212744 | 18 | 246 | 1.6 | 12.9 | 0.00 | 0.00 | 0.00 | 17 | 933.1 |
| 20260502212241 | 20 | 291 | 0.0 | 3.2 | 0.00 | 0.00 | 0.00 | 16 | 933.2 |
| 20260502211737 | 19 | 248 | 14.5 | 20.9 | 0.00 | 0.00 | 0.00 | 16 | 933.3 |
| 20260502211234 | 18 | 219 | 0.0 | 0.0 | 0.00 | 0.00 | 0.00 | 17 | 933.2 |
| 20260502210731 | 18 | 342 | 1.6 | 12.9 | 0.00 | 0.00 | 0.00 | 18 | 933.3 |
| 20260502210228 | 20 | 197 | 4.8 | 11.3 | 0.00 | 0.00 | 0.00 | 17 | 933.3 |
| 20260502205726 | 18 | 293 | 8.0 | 25.7 | 0.00 | 0.00 | 0.00 | 17 | 933.4 |
| 20260502205222 | 18 | 12 | 4.8 | 11.3 | 0.00 | 0.00 | 0.00 | 17 | 933.5 |
| 20260502204719 | 20 | 219 | 6.4 | 16.1 | 0.00 | 0.00 | 0.00 | 17 | 933.5 |
| 20260502204217 | 18 | 25 | 4.8 | 14.5 | 0.00 | 0.00 | 0.00 | 18 | 933.5 |
| 20260502203714 | 18 | 120 | 4.8 | 8.0 | 0.00 | 0.00 | 0.00 | 19 | 933.5 |
| 20260502203212 | 18 | 138 | 0.0 | 8.0 | 0.00 | 0.00 | 0.00 | 18 | 933.7 |
| 20260502202706 | 18 | 247 | 8.0 | 9.7 | 0.00 | 0.00 | 0.00 | 19 | 933.7 |
| 20260502202204 | 18 | 316 | 4.8 | 12.9 | 0.00 | 0.00 | 0.00 | 19 | 933.9 |
| 20260502201701 | 18 | 343 | 4.8 | 8.0 | 0.00 | 0.00 | 0.00 | 18 | 933.9 |
| 20260502201158 | 17 | 320 | 3.2 | 14.5 | 0.00 | 0.00 | 0.00 | 18 | 934.0 |
| 20260502200653 | 18 | 271 | 4.8 | 9.7 | 0.00 | 0.00 | 0.00 | 18 | 934.0 |
| 20260502200150 | 18 | 313 | 4.8 | 9.7 | 0.00 | 0.00 | 0.00 | 19 | 934.0 |
| 20260502195648 | 19 | 276 | 14.5 | 24.1 | 0.00 | 0.00 | 0.00 | 17 | 933.9 |
| 20260502195144 | 17 | 33 | 0.0 | 8.0 | 0.00 | 0.00 | 0.00 | 18 | 934.0 |
| 20260502194641 | 17 | 235 | 4.8 | 11.3 | 0.00 | 0.00 | 0.00 | 17 | 933.9 |
| 20260502194138 | 18 | 264 | 8.0 | 14.5 | 0.00 | 0.00 | 0.00 | 19 | 934.1 |
| 20260502193634 | 18 | 251 | 11.3 | 14.5 | 0.00 | 0.00 | 0.00 | 18 | 934.2 |
| 20260502193131 | 18 | 260 | 4.8 | 12.9 | 0.00 | 0.00 | 0.00 | 19 | 934.2 |
| 20260502192627 | 17 | 212 | 3.2 | 12.9 | 0.00 | 0.00 | 0.00 | 18 | 934.2 |
| 20260502192125 | 17 | 191 | 0.0 | 11.3 | 0.00 | 0.00 | 0.00 | 17 | 934.5 |
| 20260502191621 | 17 | 312 | 12.9 | 16.1 | 0.00 | 0.00 | 0.00 | 19 | 934.3 |
| 20260502191119 | 17 | 337 | 9.7 | 14.5 | 0.00 | 0.00 | 0.00 | 19 | 934.4 |
| 20260502190616 | 17 | 321 | 6.4 | 14.5 | 0.00 | 0.00 | 0.00 | 19 | 934.7 |
| 20260502190114 | 16 | 14 | 1.6 | 12.9 | 0.00 | 0.00 | 0.00 | 19 | 934.4 |
| 20260502185608 | 17 | 246 | 8.0 | 11.3 | 0.00 | 0.00 | 0.00 | 20 | 934.7 |
| 20260502185106 | 17 | 267 | 8.0 | 17.7 | 0.00 | 0.00 | 0.00 | 19 | 934.7 |
| 20260502184602 | 17 | 175 | 6.4 | 11.3 | 0.00 | 0.00 | 0.00 | 20 | 934.7 |
| 20260502184057 | 17 | 328 | 14.5 | 16.1 | 0.00 | 0.00 | 0.00 | 21 | 934.8 |
| 20260502183554 | 16 | 179 | 0.0 | 3.2 | 0.00 | 0.00 | 0.00 | 22 | 934.7 |
| 20260502183050 | 15 | 9 | 11.3 | 16.1 | 0.00 | 0.00 | 0.00 | 21 | 935.1 |
| 20260502182545 | 16 | 16 | 8.0 | 14.5 | 0.00 | 0.00 | 0.00 | 20 | 934.9 |
| 20260502182041 | 17 | 44 | 0.0 | 0.0 | 0.00 | 0.00 | 0.00 | 21 | 935.0 |
| 20260502181539 | 17 | 255 | 8.0 | 11.3 | 0.00 | 0.00 | 0.00 | 19 | 935.1 |
| 20260502181038 | 17 | 337 | 6.4 | 12.9 | 0.00 | 0.00 | 0.00 | 20 | 935.2 |
| 20260502180534 | 17 | 246 | 0.0 | 0.0 | 0.00 | 0.00 | 0.00 | 19 | 935.2 |
| 20260502170453 | 16 | 75 | 0.0 | 3.2 | 0.00 | 0.00 | 0.00 | 21 | 935.5 |
| 20260502163931 | 15 | 211 | 0.0 | 4.8 | 0.00 | 0.00 | 0.00 | 27 | 935.7 |
| 20260502163427 | 15 | 92 | 0.0 | 3.2 | 0.00 | 0.00 | 0.00 | 26 | 935.7 |
| 20260502162926 | 14 | 309 | 8.0 | 9.7 | 0.00 | 0.00 | 0.00 | 26 | 935.5 |
| 20260502162422 | 13 | 177 | 1.6 | 4.8 | 0.00 | 0.00 | 0.00 | 26 | 935.5 |
| 20260502161919 | 13 | 330 | 0.0 | 3.2 | 0.00 | 0.00 | 0.00 | 27 | 935.6 |
| 20260502161415 | 13 | 299 | 0.0 | 9.7 | 0.00 | 0.00 | 0.00 | 28 | 935.6 |
| 20260502160913 | 13 | 355 | 0.0 | 8.0 | 0.00 | 0.00 | 0.00 | 27 | 935.7 |
| 20260502160411 | 12 | 356 | 0.0 | 4.8 | 0.00 | 0.00 | 0.00 | 29 | 935.8 |
| 20260502151849 | 11 | 51 | 0.0 | 0.0 | 0.00 | 0.00 | 0.00 | 36 | 936.0 |
| 20260502151345 | 10 | 71 | 0.0 | 0.0 | 0.00 | 0.00 | 0.00 | 37 | 936.0 |
| 20260502150843 | 10 | 127 | 0.0 | 0.0 | 0.00 | 0.00 | 0.00 | 39 | 935.9 |
| 20260502150339 | 10 | 80 | 0.0 | 0.0 | 0.00 | 0.00 | 0.00 | 39 | 936.1 |
| 20260502130727 | 0 | 123 | 4.8 | 9.7 | 0.00 | 0.00 | 0.00 | 68 | 935.8 |
| 20260502130225 | -1 | 107 | 4.8 | 9.7 | 0.00 | 0.00 | 0.00 | 68 | 935.7 |
| 20260502123711 | -1 | 120 | 4.8 | 8.0 | 0.00 | 0.00 | 0.00 | 70 | 935.5 |
| 20260502123208 | -1 | 127 | 4.8 | 11.3 | 0.00 | 0.00 | 0.00 | 70 | 935.5 |
| 20260502122704 | -1 | 124 | 6.4 | 9.7 | 0.00 | 0.00 | 0.00 | 70 | 935.5 |
| 20260502122200 | -1 | 110 | 4.8 | 8.0 | 0.00 | 0.00 | 0.00 | 70 | 935.5 |
| 20260502121659 | -1 | 135 | 4.8 | 11.3 | 0.00 | 0.00 | 0.00 | 70 | 935.2 |
| 20260502121156 | -1 | 128 | 8.0 | 11.3 | 0.00 | 0.00 | 0.00 | 70 | 935.6 |
| 20260502120653 | -1 | 141 | 8.0 | 8.0 | 0.00 | 0.00 | 0.00 | 71 | 935.5 |
| 20260502120150 | -2 | 118 | 4.8 | 4.8 | 0.00 | 0.00 | 0.00 | 72 | 935.3 |
| 20260502115647 | -2 | 110 | 3.2 | 4.8 | 0.00 | 0.00 | 0.00 | 72 | 935.2 |
| 20260502115143 | -2 | 112 | 3.2 | 8.0 | 0.00 | 0.00 | 0.00 | 72 | 935.5 |
| 20260502114640 | -2 | 123 | 8.0 | 9.7 | 0.00 | 0.00 | 0.00 | 72 | 935.3 |
| 20260502114137 | -2 | 114 | 4.8 | 9.7 | 0.00 | 0.00 | 0.00 | 71 | 935.5 |
| 20260502113634 | -1 | 119 | 6.4 | 8.0 | 0.00 | 0.00 | 0.00 | 70 | 935.5 |
| 20260502113132 | -1 | 98 | 3.2 | 4.8 | 0.00 | 0.00 | 0.00 | 70 | 935.2 |
| 20260502112630 | -1 | 124 | 4.8 | 8.0 | 0.00 | 0.00 | 0.00 | 70 | 935.6 |
| 20260502112127 | -1 | 133 | 6.4 | 11.3 | 0.00 | 0.00 | 0.00 | 70 | 935.2 |
| 20260502111624 | -1 | 120 | 4.8 | 4.8 | 0.00 | 0.00 | 0.00 | 69 | 935.3 |
| 20260502111122 | -1 | 119 | 4.8 | 4.8 | 0.00 | 0.00 | 0.00 | 69 | 935.3 |
| 20260502110619 | -1 | 120 | 4.8 | 8.0 | 0.00 | 0.00 | 0.00 | 68 | 935.6 |
| 20260502110117 | -1 | 115 | 3.2 | 8.0 | 0.00 | 0.00 | 0.00 | 69 | 935.7 |
| 20260502105614 | -1 | 124 | 6.4 | 8.0 | 0.00 | 0.00 | 0.00 | 68 | 935.5 |
| 20260502105111 | -1 | 120 | 4.8 | 8.0 | 0.00 | 0.00 | 0.00 | 68 | 935.6 |
| 20260502104608 | -1 | 147 | 6.4 | 14.5 | 0.00 | 0.00 | 0.00 | 68 | 935.2 |
| 20260502104105 | -1 | 127 | 8.0 | 11.3 | 0.00 | 0.00 | 0.00 | 68 | 935.5 |
| 20260502103603 | -1 | 127 | 8.0 | 9.7 | 0.00 | 0.00 | 0.00 | 68 | 935.3 |
| 20260502103101 | -1 | 105 | 4.8 | 8.0 | 0.00 | 0.00 | 0.00 | 68 | 935.0 |
| 20260502102557 | -1 | 118 | 4.8 | 9.7 | 0.00 | 0.00 | 0.00 | 68 | 935.3 |
| 20260502102054 | -1 | 119 | 4.8 | 8.0 | 0.00 | 0.00 | 0.00 | 67 | 935.2 |
| 20260502101552 | -1 | 128 | 6.4 | 9.7 | 0.00 | 0.00 | 0.00 | 67 | 935.1 |
| 20260502101050 | -1 | 126 | 8.0 | 11.3 | 0.00 | 0.00 | 0.00 | 67 | 935.2 |
| 20260502100548 | -1 | 126 | 9.7 | 11.3 | 0.00 | 0.00 | 0.00 | 67 | 935.0 |
| 20260502091523 | 0 | 141 | 8.0 | 11.3 | 0.00 | 0.00 | 0.00 | 65 | 935.0 |
| 20260502091020 | 0 | 128 | 8.0 | 9.7 | 0.00 | 0.00 | 0.00 | 65 | 935.2 |
| 20260502090517 | 0 | 107 | 3.2 | 4.8 | 0.00 | 0.00 | 0.00 | 64 | 935.2 |
| 20260502071412 | 1 | 128 | 4.8 | 8.0 | 0.00 | 0.00 | 0.00 | 61 | 935.3 |
| 20260502070910 | 1 | 140 | 4.8 | 9.7 | 0.00 | 0.00 | 0.00 | 61 | 935.3 |
| 20260502070407 | 1 | 127 | 4.8 | 9.7 | 0.00 | 0.00 | 0.00 | 61 | 935.2 |
| 20260502065906 | 1 | 133 | 0.0 | 0.0 | 0.00 | 0.00 | 0.00 | 59 | 935.2 |
| 20260502065404 | 2 | 126 | 0.0 | 0.0 | 0.00 | 0.00 | 0.00 | 56 | 934.8 |
| 20260502064902 | 2 | 115 | 0.0 | 0.0 | 0.00 | 0.00 | 0.00 | 54 | 935.0 |
| 20260502064359 | 1 | 104 | 0.0 | 0.0 | 0.00 | 0.00 | 0.00 | 56 | 935.0 |
| 20260502063856 | 1 | 103 | 0.0 | 1.6 | 0.00 | 0.00 | 0.00 | 57 | 934.8 |
| 20260502063354 | 2 | 71 | 0.0 | 0.0 | 0.00 | 0.00 | 0.00 | 56 | 935.1 |
| 20260502062851 | 3 | 119 | 0.0 | 0.0 | 0.00 | 0.00 | 0.00 | 51 | 934.8 |
| 20260502062348 | 2 | 138 | 0.0 | 11.3 | 0.00 | 0.00 | 0.00 | 52 | 934.8 |
| 20260502061847 | 2 | 122 | 0.0 | 1.6 | 0.00 | 0.00 | 0.00 | 57 | 934.9 |
| 20260502061345 | 2 | 107 | 0.0 | 0.0 | 0.00 | 0.00 | 0.00 | 53 | 934.7 |
| 20260502060840 | 2 | 137 | 0.0 | 9.7 | 0.00 | 0.00 | 0.00 | 51 | 934.9 |
| 20260502060335 | 3 | 128 | 6.4 | 9.7 | 0.00 | 0.00 | 0.00 | 49 | 934.9 |
| 20260502055833 | 3 | 129 | 4.8 | 11.3 | 0.00 | 0.00 | 0.00 | 48 | 934.9 |
| 20260502055331 | 3 | 118 | 8.0 | 11.3 | 0.00 | 0.00 | 0.00 | 46 | 935.0 |
| 20260502054831 | 2 | 107 | 4.8 | 11.3 | 0.00 | 0.00 | 0.00 | 47 | 934.8 |
| 20260502054328 | 2 | 65 | 0.0 | 0.0 | 0.00 | 0.00 | 0.00 | 51 | 934.7 |
| 20260502053825 | 3 | 103 | 0.0 | 1.6 | 0.00 | 0.00 | 0.00 | 51 | 934.5 |
| 20260502053322 | 3 | 130 | 4.8 | 11.3 | 0.00 | 0.00 | 0.00 | 51 | 934.4 |
| 20260502052820 | 3 | 110 | 3.2 | 8.0 | 0.00 | 0.00 | 0.00 | 50 | 934.8 |
| 20260502052318 | 3 | 127 | 6.4 | 9.7 | 0.00 | 0.00 | 0.00 | 50 | 934.5 |
| 20260502051815 | 3 | 142 | 4.8 | 11.3 | 0.00 | 0.00 | 0.00 | 50 | 934.7 |
| 20260502051314 | 3 | 122 | 6.4 | 12.9 | 0.00 | 0.00 | 0.00 | 49 | 934.5 |
| 20260502050809 | 3 | 136 | 9.7 | 11.3 | 0.00 | 0.00 | 0.00 | 49 | 934.5 |
| 20260502050306 | 4 | 132 | 8.0 | 12.9 | 0.00 | 0.00 | 0.00 | 47 | 934.3 |
| 20260502045803 | 3 | 131 | 11.3 | 14.5 | 0.00 | 0.00 | 0.00 | 48 | 934.9 |
| 20260502045300 | 4 | 133 | 9.7 | 14.5 | 0.00 | 0.00 | 0.00 | 48 | 934.7 |
| 20260502044757 | 4 | 130 | 9.7 | 12.9 | 0.00 | 0.00 | 0.00 | 47 | 934.4 |
| 20260502044253 | 4 | 131 | 9.7 | 11.3 | 0.00 | 0.00 | 0.00 | 46 | 934.4 |
| 20260502043750 | 5 | 141 | 6.4 | 12.9 | 0.00 | 0.00 | 0.00 | 45 | 934.5 |
| 20260502043248 | 5 | 112 | 9.7 | 12.9 | 0.00 | 0.00 | 0.00 | 44 | 934.4 |
| 20260502042747 | 5 | 133 | 6.4 | 12.9 | 0.00 | 0.00 | 0.00 | 43 | 934.8 |
| 20260502042245 | 5 | 130 | 0.0 | 4.8 | 0.00 | 0.00 | 0.00 | 42 | 934.4 |
| 20260502041742 | 4 | 65 | 0.0 | 0.0 | 0.00 | 0.00 | 0.00 | 46 | 934.4 |
| 20260502041240 | 4 | 57 | 0.0 | 0.0 | 0.00 | 0.00 | 0.00 | 45 | 934.7 |
| 20260502040736 | 5 | 62 | 0.0 | 0.0 | 0.00 | 0.00 | 0.00 | 44 | 934.5 |